TimeMDT,TemperatureF,Dew PointF,Humidity,Sea Level PressureIn,VisibilityMPH,Wind Direction,Wind SpeedMPH,Gust SpeedMPH,PrecipitationIn,Events,Conditions,WindDirDegrees,DateUTC
12:14 AM,50.0,33.8,54,30.81,-9999.0,Calm,Calm,-,N/A,,Clear,0,2013-06-30 06:14:00
12:34 AM,48.2,35.6,62,30.80,-9999.0,SSW,4.6,-,N/A,,Clear,200,2013-06-30 06:34:00
12:54 AM,46.4,35.6,66,30.80,-9999.0,South,3.5,-,N/A,,Clear,180,2013-06-30 06:54:00
1:14 AM,48.2,33.8,58,30.79,-9999.0,Calm,Calm,-,N/A,,Clear,0,2013-06-30 07:14:00
1:34 AM,48.2,33.8,58,30.80,-9999.0,WSW,4.6,-,N/A,,Clear,250,2013-06-30 07:34:00
1:54 AM,50.0,33.8,54,30.79,-9999.0,Calm,Calm,-,N/A,,Clear,0,2013-06-30 07:54:00
2:14 AM,48.2,33.8,58,30.79,-9999.0,East,5.8,-,N/A,,Clear,90,2013-06-30 08:14:00
2:34 AM,48.2,33.8,58,30.79,-9999.0,East,5.8,-,N/A,,Scattered Clouds,90,2013-06-30 08:34:00
2:54 AM,50.0,33.8,54,30.79,-9999.0,Calm,Calm,-,N/A,,Scattered Clouds,0,2013-06-30 08:54:00
3:14 AM,48.2,33.8,58,30.78,-9999.0,East,4.6,-,N/A,,Scattered Clouds,90,2013-06-30 09:14:00
3:34 AM,48.2,33.8,58,30.77,-9999.0,East,4.6,-,N/A,,Mostly Cloudy,90,2013-06-30 09:34:00
3:54 AM,48.2,33.8,58,30.77,-9999.0,East,3.5,-,N/A,,Mostly Cloudy,80,2013-06-30 09:54:00
4:14 AM,48.2,33.8,58,30.76,-9999.0,Calm,Calm,-,N/A,,Scattered Clouds,0,2013-06-30 10:14:00
4:34 AM,46.4,33.8,62,30.76,-9999.0,SW,8.1,-,N/A,,Clear,220,2013-06-30 10:34:00
4:54 AM,46.4,33.8,62,30.76,-9999.0,SW,11.5,-,N/A,,Clear,220,2013-06-30 10:54:00
5:14 AM,46.4,33.8,62,30.76,-9999.0,SW,12.7,-,N/A,,Clear,230,2013-06-30 11:14:00
5:34 AM,46.4,33.8,62,30.76,-9999.0,WSW,12.7,-,N/A,,Clear,240,2013-06-30 11:34:00
5:54 AM,44.6,33.8,66,30.76,-9999.0,WSW,18.4,-,N/A,,Clear,250,2013-06-30 11:54:00
6:14 AM,46.4,33.8,62,30.76,-9999.0,West,18.4,-,N/A,,Clear,260,2013-06-30 12:14:00
6:34 AM,46.4,33.8,62,30.76,-9999.0,WSW,17.3,-,N/A,,Clear,250,2013-06-30 12:34:00
6:54 AM,46.4,35.6,66,30.76,-9999.0,WSW,17.3,-,N/A,,Clear,250,2013-06-30 12:54:00
7:14 AM,46.4,35.6,66,30.76,-9999.0,West,16.1,-,N/A,,Clear,260,2013-06-30 13:14:00
7:34 AM,46.4,35.6,66,30.76,-9999.0,West,12.7,-,N/A,,Clear,260,2013-06-30 13:34:00
7:54 AM,48.2,35.6,62,30.77,-9999.0,West,16.1,-,N/A,,Clear,260,2013-06-30 13:54:00
8:14 AM,50.0,35.6,58,30.77,-9999.0,West,16.1,-,N/A,,Clear,260,2013-06-30 14:14:00
8:34 AM,50.0,35.6,58,30.77,-9999.0,West,17.3,-,N/A,,Clear,260,2013-06-30 14:34:00
8:54 AM,51.8,35.6,54,30.78,-9999.0,West,15.0,-,N/A,,Clear,260,2013-06-30 14:54:00
9:14 AM,51.8,35.6,54,30.78,-9999.0,WSW,12.7,16.1,N/A,,Clear,250,2013-06-30 15:14:00
9:34 AM,53.6,35.6,51,30.78,-9999.0,WSW,9.2,-,N/A,,Clear,250,2013-06-30 15:34:00
9:54 AM,53.6,37.4,54,30.78,-9999.0,WSW,8.1,-,N/A,,Clear,250,2013-06-30 15:54:00
10:14 AM,55.4,37.4,51,30.78,-9999.0,WSW,10.4,-,N/A,,Clear,240,2013-06-30 16:14:00
10:34 AM,55.4,37.4,51,30.78,-9999.0,West,12.7,17.3,N/A,,Clear,260,2013-06-30 16:34:00
10:54 AM,57.2,37.4,48,30.78,-9999.0,WSW,8.1,-,N/A,,Clear,250,2013-06-30 16:54:00
11:14 AM,59.0,37.4,45,30.78,-9999.0,WSW,8.1,-,N/A,,Scattered Clouds,250,2013-06-30 17:14:00
11:34 AM,59.0,37.4,45,30.77,-9999.0,NW,4.6,19.6,N/A,,Clear,320,2013-06-30 17:34:00
11:54 AM,59.0,35.6,42,30.76,-9999.0,West,10.4,16.1,N/A,,Mostly Cloudy,270,2013-06-30 17:54:00
12:14 PM,60.8,39.2,45,30.77,-9999.0,West,8.1,-,N/A,,Mostly Cloudy,280,2013-06-30 18:14:00
12:34 PM,60.8,39.2,45,30.77,-9999.0,WNW,8.1,-,N/A,,Mostly Cloudy,300,2013-06-30 18:34:00
12:54 PM,60.8,39.2,45,30.76,-9999.0,WSW,9.2,-,N/A,,Mostly Cloudy,240,2013-06-30 18:54:00
1:14 PM,60.8,37.4,42,30.75,-9999.0,West,17.3,20.7,N/A,,Mostly Cloudy,280,2013-06-30 19:14:00
1:34 PM,62.6,37.4,39,30.74,-9999.0,WNW,8.1,21.9,N/A,,Mostly Cloudy,300,2013-06-30 19:34:00
1:54 PM,62.6,35.6,37,30.73,-9999.0,West,23.0,27.6,N/A,Thunderstorm,Thunderstorm,270,2013-06-30 19:54:00
2:14 PM,62.6,35.6,37,30.73,-9999.0,West,16.1,25.3,N/A,Thunderstorm,Thunderstorm,270,2013-06-30 20:14:00
2:34 PM,60.8,35.6,39,30.74,-9999.0,NW,11.5,25.3,N/A,,Overcast,310,2013-06-30 20:34:00
2:54 PM,62.6,33.8,34,30.73,-9999.0,Calm,Calm,-,N/A,Thunderstorm,Thunderstorm,0,2013-06-30 20:54:00
3:14 PM,64.4,32.0,30,30.73,-9999.0,North,11.5,29.9,N/A,Thunderstorm,Mostly Cloudy,360,2013-06-30 21:14:00
3:34 PM,64.4,32.0,30,30.71,-9999.0,NNE,19.6,25.3,N/A,Thunderstorm,Thunderstorm,20,2013-06-30 21:34:00
3:54 PM,60.8,37.4,42,30.68,-9999.0,ENE,29.9,38.0,N/A,,Mostly Cloudy,60,2013-06-30 21:54:00
4:14 PM,51.8,44.6,76,30.69,-9999.0,East,39.1,48.3,N/A,Thunderstorm,Thunderstorm,80,2013-06-30 22:14:00
4:34 PM,50.0,46.4,87,30.70,-9999.0,ENE,35.7,44.9,N/A,Thunderstorm,Thunderstorm,70,2013-06-30 22:34:00
4:54 PM,46.4,44.6,93,30.71,-9999.0,ENE,39.1,50.6,N/A,Thunderstorm,Thunderstorm,70,2013-06-30 22:54:00
5:14 PM,44.6,42.8,93,30.70,-9999.0,ENE,46.0,55.2,N/A,,Overcast,70,2013-06-30 23:14:00
5:34 PM,42.8,42.8,100,30.72,-9999.0,ENE,34.5,55.2,N/A,,Overcast,70,2013-06-30 23:34:00
5:54 PM,44.6,42.8,93,30.71,-9999.0,ENE,27.6,33.4,N/A,,Overcast,60,2013-06-30 23:54:00
6:14 PM,44.6,42.8,93,30.71,-9999.0,ENE,26.5,-,N/A,,Overcast,60,2013-07-01 00:14:00
6:34 PM,42.8,42.8,100,30.71,-9999.0,ENE,29.9,-,N/A,,Overcast,60,2013-07-01 00:34:00
6:54 PM,42.8,42.8,100,30.74,-9999.0,ENE,18.4,-,N/A,,Overcast,70,2013-07-01 00:54:00
7:14 PM,44.6,41.0,87,30.74,-9999.0,ENE,18.4,-,N/A,,Unknown,60,2013-07-01 01:14:00
7:34 PM,48.2,37.4,66,30.74,-9999.0,ENE,11.5,-,N/A,,Mostly Cloudy,70,2013-07-01 01:34:00
7:54 PM,50.0,35.6,58,30.74,-9999.0,NE,4.6,-,N/A,,Scattered Clouds,50,2013-07-01 01:54:00
8:14 PM,50.0,35.6,58,30.74,-9999.0,ENE,20.7,-,N/A,,Scattered Clouds,70,2013-07-01 02:14:00
8:34 PM,42.8,41.0,93,30.74,-9999.0,ENE,21.9,-,N/A,,Unknown,70,2013-07-01 02:34:00
8:54 PM,42.8,42.8,100,30.75,-9999.0,ENE,26.5,29.9,N/A,,Overcast,60,2013-07-01 02:54:00
9:14 PM,42.8,41.0,93,30.75,-9999.0,ENE,24.2,-,N/A,,Overcast,70,2013-07-01 03:14:00
9:34 PM,42.8,41.0,93,30.77,-9999.0,ENE,23.0,-,N/A,,Overcast,70,2013-07-01 03:34:00
9:54 PM,42.8,41.0,93,30.77,-9999.0,ENE,27.6,-,N/A,,Overcast,60,2013-07-01 03:54:00
10:14 PM,42.8,41.0,93,30.79,-9999.0,ENE,28.8,-,N/A,,Overcast,70,2013-07-01 04:14:00
10:34 PM,42.8,41.0,93,30.79,-9999.0,East,20.7,-,N/A,,Overcast,80,2013-07-01 04:34:00
10:54 PM,41.0,41.0,100,30.77,-9999.0,ENE,21.9,-,N/A,,Unknown,70,2013-07-01 04:54:00
11:14 PM,41.0,41.0,100,30.79,-9999.0,ENE,17.3,-,N/A,,Unknown,60,2013-07-01 05:14:00
11:34 PM,42.8,41.0,93,30.79,-9999.0,NE,15.0,-,N/A,,Unknown,50,2013-07-01 05:34:00
11:54 PM,42.8,39.2,87,30.79,-9999.0,ENE,13.8,-,N/A,,Unknown,70,2013-07-01 05:54:00